Location: C.E.K. Mees Observatory
(42.7003°N, 77.4088°W)
Time: 07:34:18
(UTC-05:00)

Envisat - Pass Details

Date: 22 November 2019
Orbit: 764 x 766 km, 98.1° (Epoch: 07 December)

Event Time Altitude Azimuth Distance (km) Brightness Sun altitude
Rises 17:05:13 0° 133° (SE) 3,220 6.0 -4.8°
Reaches altitude 10° 17:07:50 10° 121° (ESE) 2,298 5.1 -5.2°
Maximum altitude 17:11:58 26° 66° (ENE) 1,474 3.9 -5.9°
Drops below altitude 10° 17:16:08 10° 11° (N) 2,310 5.2 -6.6°
Sets 17:18:45 0° 359° (N) 3,240 6.0 -7.1°
